Regional Weather Roundup
Issued by NWS

Home | Current Version | Previous Version | Graphics & Text | Print | Product List | Glossary On
Versions: 1 2 3 4 5 6 7 8 9 10 11 12 13 14 15 16 17 18 19 20 21 22 23 24 25 26 27 28 29 30 31 32 33 34 35 36 37 38 39 40 41 42 43 44 45 46 47 48 49 50
000
ASUS43 KBIS 300210
RWRND

NORTH DAKOTA REGIONAL WEATHER ROUNDUP
NATIONAL WEATHER SERVICE BISMARCK ND
900 PM CDT WED JUL 29 2015

NOTE: "FAIR" INDICATES FEW OR NO CLOUDS BELOW 12,000 FEET WITH NO
SIGNIFICANT WEATHER AND/OR OBSTRUCTIONS TO VISIBILITY.


NDZ001>003-009>011-017-300300-
NORTHWEST NORTH DAKOTA

CITY           SKY/WX    TMP DP  RH WIND       PRES   REMARKS
WILLISTON      CLEAR     73  49  42 NW7       30.06S
MINOT          CLEAR     73  52  47 W13       29.99R
MINOT AFB      CLEAR     73  59  61 W9        29.98R
$$

NDZ018>021-031>035-040>046-300300-
SOUTHWEST NORTH DAKOTA

CITY           SKY/WX    TMP DP  RH WIND       PRES   REMARKS
BISMARCK       CLEAR     77  49  37 W8        30.04R
DICKINSON      CLEAR     69  49  48 NW7       30.10R
GARRISON         N/A     68  56  65 NW9       30.03R
HETTINGER ARPT CLEAR     69  50  50 NW7       30.13R
$$

NDZ004>008-012>016-024-026-027-054-300300-
NORTHEAST NORTH DAKOTA

CITY           SKY/WX    TMP DP  RH WIND       PRES   REMARKS
GRAND FORKS    PTCLDY    71  58  63 W7        29.88R
GRND FRKS AFB  CLEAR     71  58  63 W7        29.90R
DEVILS LAKE    CLEAR     72  54  53 W10       29.93R
$$

NDZ022-023-025-028>030-036>039-047>053-300300-
SOUTHEAST NORTH DAKOTA

CITY           SKY/WX    TMP DP  RH WIND       PRES   REMARKS
FARGO          PTCLDY    72  60  66 W9        29.93R
JAMESTOWN      CLEAR     73  53  49 W12       29.99R
$$




USA.gov is the U.S. government's official web portal to all federal, state and local government web resources and services.